Location: Carrières
(48.9495°N, 2.0407°E)
Time: 21:46:17
(UTC+00:00)

Cosmos 2263 Rocket - Pass Details

Date: 28 January 2023
Orbit: 824 x 847 km, 71.0° (Epoch: 29 March)

Event Time Altitude Azimuth Distance (km) Brightness Sun altitude
Rises 18:49:53 0° 327° (NNW) 3,376 5.7 -20.9°
Reaches altitude 10° 18:52:25 10° 320° (NW) 2,437 5.0 -21.3°
Maximum altitude 18:57:38 42° 252° (WSW) 1,163 3.4 -22.2°
Drops below altitude 10° 19:02:48 10° 182° (S) 2,419 4.6 -23.0°
Sets 19:05:20 0° 176° (S) 3,349 5.3 -23.4°
